Star Dieppe — LEQZ3 — position and weather

sailwx.info

Track history (hours):
 
Tides and Currents Weather Stations Pressure Air Temp Water Temp Dewpoint Dewpoint Depression Visibility Wind Speed Wind Dir Waves Ship Positions

Star Dieppe

Last reported at 2014-Oct-22 14:33 UTC. Time now 2014-Oct-22 15:32 UTC.
Position N 48°43' W 125°39'.

Length 182 m; draft 8.3 m.

Type: Cargo ship. MMSI: 257439000.

Date/timePositionNaut miles runAvg speedWind from/ knotsBaromVisibWave heightAir tempDewpointWater temp
2014-Oct-22 14:33N 48°43' W 125°39'7 7.2
2014-Oct-22 13:33N 48°48' W 125°47'8 7.7
2014-Oct-22 12:33N 48°53' W 125°56'7 7.3
2014-Oct-22 11:33N 48°58' W 126°04'7 7.3
2014-Oct-22 10:33N 49°03' W 126°12'7 7.1
2014-Oct-22 09:33N 49°08' W 126°20'8 8.3
2014-Oct-22 08:33N 49°12' W 126°30'9 8.6
2014-Oct-22 07:33N 49°17' W 126°41'10 9.6
2014-Oct-22 06:33N 49°24' W 126°51'1010.2
2014-Oct-22 05:33N 49°31' W 127°03'1010.0
2014-Oct-22 04:32N 49°37' W 127°15'  
2014-Oct-17 17:28N 50°54' W 128°15'1112.2
2014-Oct-17 16:33N 50°60' W 127°60'7 6.8
2014-Oct-17 15:33N 50°59' W 127°49'2 2.1
2014-Oct-17 14:32N 50°60' W 127°52'1 1.5
2014-Oct-17 13:31N 51°00' W 127°54'5 5.5
2014-Oct-17 12:33N 51°02' W 128°02'5 4.6
2014-Oct-17 11:27N 51°03' W 128°10'7 6.8
2014-Oct-17 10:26N 51°05' W 128°21'7 6.8
2014-Oct-17 09:29N 51°07' W 128°31'469 9.1
2014-Oct-15 06:00N 51°48' W 141°00'13511.2 290 / 30995.0 5.4 5.0 8.0 6.0
2014-Oct-14 18:00N 53°06' W 144°00'40611.3 310 / 30996.0 5.4 5.010.0 8.0
2014-Oct-13 06:00N 55°54' W 154°36'   300 / 37995.0 5.4 5.0 5.0 3.0
Track history (hours):
 
Tides and Currents Weather Stations Pressure Air Temp Water Temp Dewpoint Dewpoint Depression Visibility Wind Speed Wind Dir Waves Ship Positions

Star Dieppe

Last reported at 2014-Oct-22 14:33 UTC. Time now 2014-Oct-22 15:32 UTC.
Position N 48°43' W 125°39'.

Length 182 m; draft 8.3 m.

Type: Cargo ship. MMSI: 257439000.

Date/timePositionNaut miles runAvg speedWind from/ knotsBaromVisibWave heightAir tempDewpointWater temp
2014-Oct-22 14:33N 48°43' W 125°39'7 7.2
2014-Oct-22 13:33N 48°48' W 125°47'8 7.7
2014-Oct-22 12:33N 48°53' W 125°56'7 7.3
2014-Oct-22 11:33N 48°58' W 126°04'7 7.3
2014-Oct-22 10:33N 49°03' W 126°12'7 7.1
2014-Oct-22 09:33N 49°08' W 126°20'8 8.3
2014-Oct-22 08:33N 49°12' W 126°30'9 8.6
2014-Oct-22 07:33N 49°17' W 126°41'10 9.6
2014-Oct-22 06:33N 49°24' W 126°51'1010.2
2014-Oct-22 05:33N 49°31' W 127°03'1010.0
2014-Oct-22 04:32N 49°37' W 127°15'  
2014-Oct-17 17:28N 50°54' W 128°15'1112.2
2014-Oct-17 16:33N 50°60' W 127°60'7 6.8
2014-Oct-17 15:33N 50°59' W 127°49'2 2.1
2014-Oct-17 14:32N 50°60' W 127°52'1 1.5
2014-Oct-17 13:31N 51°00' W 127°54'5 5.5
2014-Oct-17 12:33N 51°02' W 128°02'5 4.6
2014-Oct-17 11:27N 51°03' W 128°10'7 6.8
2014-Oct-17 10:26N 51°05' W 128°21'7 6.8
2014-Oct-17 09:29N 51°07' W 128°31'469 9.1
2014-Oct-15 06:00N 51°48' W 141°00'13511.2 290 / 30995.0 5.4 5.0 8.0 6.0
2014-Oct-14 18:00N 53°06' W 144°00'40611.3 310 / 30996.0 5.4 5.010.0 8.0
2014-Oct-13 06:00N 55°54' W 154°36'   300 / 37995.0 5.4 5.0 5.0 3.0

Dump ship's entire track history